This demonstration page uses our WeatherBlox Daily Observations layout. Learn more.

Hourly Observations for January 19, 2016

Temp ( °F °C ) Dew Point ( °F °C ) Humidity (%) Winds ( mph kmh ) Pressure ( in mb ) Visibility ( mi km ) Precip ( " mm )
12:15 am 00:15 Cloudy 25 -3.7 16 -8.8 68 68 SE 12 19 30.21 1023 10 16.0934 0 0
12:35 am 00:35 Mostly Cloudy 25 -3.8 16 -8.8 69 69 SE 13 20 30.21 1023 10 16.0934 0 0
12:55 am 00:55 Mostly Cloudy 25 -3.9 16 -8.7 70 70 SE 13 20 30.21 1023 10 16.0934 0 0
1:15 am 01:15 Cloudy 25 -4 16 -9 69 69 SE 15 24 30.21 1023 10 16.0934 0 0
1:35 am 01:35 Cloudy 25 -4 16 -9 69 69 SE 14 22 30.21 1023 10 16.0934 0 0
1:55 am 01:55 Partly Cloudy 24 -4.2 16 -8.7 71 71 SSE 13 20 30.18 1022 10 16.0934 0 0
2:15 am 02:15 Clear 24 -4.6 16 -8.8 73 73 SSE 10 17 30.21 1023 10 16.0934 0 0
2:35 am 02:35 Clear 23 -4.8 17 -8.6 75 75 SSE 12 19 30.21 1023 10 16.0934 0 0
2:55 am 02:55 Clear 23 -4.8 17 -8.6 75 75 SSE 12 19 30.21 1023 10 16.0934 0 0
3:15 am 03:15 Partly Cloudy 23 -4.8 17 -8.5 76 76 SSE 9 15 30.21 1023 10 16.0934 0 0
3:35 am 03:35 Mostly Cloudy 23 -4.8 17 -8.3 77 77 SE 8 13 30.21 1023 10 16.0934 0 0
3:55 am 03:55 Cloudy 24 -4.7 17 -8.2 77 77 SSE 9 15 30.21 1023 10 16.0934 0 0
4:15 am 04:15 Cloudy 24 -4.7 17 -8.1 77 77 SSE 8 13 30.21 1023 10 16.0934 0 0
4:35 am 04:35 Cloudy 24 -4.5 18 -8 77 77 SSE 7 11 30.21 1023 10 16.0934 0 0
4:55 am 04:55 Cloudy 24 -4.3 18 -7.6 78 78 SSE 7 11 30.21 1023 10 16.0934 0 0
5:15 am 05:15 Cloudy 24 -4.2 19 -7.5 78 78 SSE 6 9 30.24 1024 10 16.0934 0 0
5:35 am 05:35 Cloudy 24 -4.3 18 -7.6 78 78 SE 9 15 30.21 1023 10 16.0934 0 0
5:55 am 05:55 Cloudy 24 -4.5 18 -7.7 79 79 SSE 6 9 30.24 1024 10 16.0934 0 0
6:15 am 06:15 Cloudy 24 -4.7 17 -8.1 77 77 SE 3 6 30.24 1024 10 16.0934 0 0
6:35 am 06:35 Cloudy 23 -4.8 17 -8.3 77 77 Calm 30.27 1025 10 16.0934 0 0
6:55 am 06:55 Cloudy with Light Snow 23 -4.9 17 -8.3 77 77 Calm 30.27 1025 10 16.0934 0 0
7:15 am 07:15 Cloudy with Light Snow 23 -5 17 -8.1 79 79 Calm 30.27 1025 5 8.0467 0 0
7:35 am 07:35 Cloudy with Light Snow 23 -5.2 18 -8 81 81 E 3 6 30.27 1025 5 8.0467 0 0
7:55 am 07:55 Cloudy with Light Snow 22 -5.5 18 -8 83 83 E 5 7 30.27 1025 4 6.43736 0 0
8:15 am 08:15 Cloudy with Light Snow 22 -5.5 18 -7.7 85 85 E 7 11 30.27 1025 10 16.0934 0 0
8:35 am 08:35 Cloudy with Light Snow 22 -5.6 18 -7.8 85 85 E 7 11 30.3 1026 2.5 4.02335 0 0
8:55 am 08:55 Cloudy with Light Snow 22 -5.6 18 -7.7 85 85 E 7 11 30.3 1026 1.75 2.816345 0 0
9:15 am 09:15 Cloudy with Light Snow 22 -5.8 18 -8 85 85 E 6 9 30.3 1026 1 1.60934 0 0
9:35 am 09:35 Cloudy with Light Snow 22 -5.8 18 -7.7 87 87 E 6 9 30.3 1026 1.75 2.816345 0 0
9:55 am 09:55 Cloudy with Light Snow 21 -6 18 -7.9 87 87 ENE 3 6 30.33 1027 2 3.21868 0 0
10:15 am 10:15 Cloudy with Light Snow 22 -5.7 18 -7.7 86 86 ENE 3 6 30.33 1027 4 6.43736 0 0
10:35 am 10:35 Cloudy with Mist and Fog 22 -5.5 18 -7.8 84 84 Calm 30.36 1028 5 8.0467 0 0
10:55 am 10:55 Cloudy 22 -5.5 18 -7.6 85 85 ESE 7 11 30.3 1026 10 16.0934 0 0
11:15 am 11:15 Cloudy 22 -5.5 18 -7.7 85 85 ESE 5 7 30.36 1028 10 16.0934 0 0
11:35 am 11:35 Cloudy 22 -5.3 19 -7.5 85 85 SE 3 6 30.36 1028 10 16.0934 0 0
11:55 am 11:55 Cloudy 23 -4.8 18 -7.6 81 81 Calm 30.36 1028 10 16.0934 0 0
12:15 pm 12:15 Cloudy 24 -4.6 19 -7.3 82 82 Calm 30.36 1028 10 16.0934 0 0
12:35 pm 12:35 Cloudy 24 -4.2 20 -6.9 82 82 SE 3 6 30.3 1026 10 16.0934 0 0
12:55 pm 12:55 Cloudy 25 -4 20 -6.7 82 82 Calm 30.3 1026 10 16.0934 0 0
1:15 pm 13:15 Cloudy 25 -3.8 20 -6.9 79 79 Calm 30.3 1026 10 16.0934 0 0
1:35 pm 13:35 Cloudy 25 -3.7 19 -7 78 78 Calm 30.27 1025 10 16.0934 0 0
1:55 pm 13:55 Cloudy 26 -3.5 20 -6.6 79 79 Calm 30.27 1025 10 16.0934 0 0
2:15 pm 14:15 Cloudy 26 -3.1 20 -6.4 78 78 Calm 30.27 1025 10 16.0934 0 0
2:35 pm 14:35 Cloudy 27 -2.7 21 -5.9 79 79 Calm 30.27 1025 10 16.0934 0 0
2:55 pm 14:55 Cloudy 27 -2.6 21 -6 78 78 Calm 30.27 1025 10 16.0934 0 0
3:15 pm 15:15 Cloudy 28 -2.3 22 -5.8 77 77 Calm 30.24 1024 10 16.0934 0 0
3:35 pm 15:35 Cloudy 28 -2.1 22 -5.6 77 77 Calm 30.24 1024 10 16.0934 0 0
3:55 pm 15:55 Cloudy 28 -2 22 -5.5 77 77 NW 3 6 30.24 1024 10 16.0934 0 0
4:15 pm 16:15 Cloudy 28 -2 22 -5.4 78 78 Calm 30.24 1024 10 16.0934 0 0
4:35 pm 16:35 Cloudy 29 -1.8 22 -5.3 77 77 Calm 30.24 1024 10 16.0934 0 0
4:55 pm 16:55 Cloudy 29 -1.7 23 -5.1 78 78 Calm 30.24 1024 10 16.0934 0 0
5:15 pm 17:15 Cloudy 29 -1.7 23 -5.1 78 78 Calm 30.24 1024 10 16.0934 0 0
5:35 pm 17:35 Cloudy 29 -1.8 23 -5.1 78 78 Calm 30.24 1024 10 16.0934 0 0
5:55 pm 17:55 Cloudy 29 -1.8 23 -5 79 79 Calm 30.24 1024 10 16.0934 0 0
6:15 pm 18:15 Cloudy 29 -1.8 23 -4.9 80 80 Calm 30.24 1024 10 16.0934 0 0
6:35 pm 18:35 Cloudy 28 -2 24 -4.5 83 83 SE 5 7 30.24 1024 10 16.0934 0 0
6:55 pm 18:55 Cloudy 28 -2 24 -4.6 83 83 SSE 3 6 30.27 1025 10 16.0934 0 0
7:15 pm 19:15 Cloudy 28 -2 24 -4.5 83 83 SSE 5 7 30.24 1024 10 16.0934 0 0
7:35 pm 19:35 Cloudy 28 -2 24 -4.4 84 84 SSE 6 9 30.24 1024 10 16.0934 0 0
7:55 pm 19:55 Cloudy 28 -2.1 24 -4.5 84 84 SSE 3 6 30.24 1024 10 16.0934 0 0
8:15 pm 20:15 Cloudy 28 -2.1 24 -4.7 83 83 S 5 7 30.24 1024 10 16.0934 0 0
8:35 pm 20:35 Cloudy 28 -2.1 24 -4.6 83 83 S 5 7 30.24 1024 10 16.0934 0 0
8:55 pm 20:55 Cloudy 28 -2.2 24 -4.6 84 84 S 5 7 30.24 1024 10 16.0934 0 0
9:15 pm 21:15 Cloudy 28 -2.1 24 -4.5 84 84 S 5 7 30.24 1024 10 16.0934 0 0
9:35 pm 21:35 Cloudy 28 -2.2 23 -4.9 82 82 S 5 7 30.24 1024 10 16.0934 0 0
9:55 pm 21:55 Cloudy 28 -2.3 23 -5 82 82 S 5 7 30.24 1024 10 16.0934 0 0
10:15 pm 22:15 Cloudy 27 -3 23 -5.2 85 85 SSE 5 7 30.27 1025 10 16.0934 0 0
10:35 pm 22:35 Mostly Cloudy 26 -3.5 22 -5.4 87 87 SSE 5 7 30.27 1025 10 16.0934 0 0
10:55 pm 22:55 Mostly Cloudy 25 -4.1 22 -5.7 89 89 Calm 30.27 1025 10 16.0934 0 0
11:15 pm 23:15 Cloudy 25 -3.9 22 -5.4 89 89 Calm 30.27 1025 10 16.0934 0 0
11:35 pm 23:35 Cloudy 25 -4 22 -5.7 88 88 SSE 3 6 30.27 1025 10 16.0934 0 0
11:55 pm 23:55 Cloudy 25 -3.7 22 -5.5 87 87 S 5 7 30.27 1025 10 16.0934 0 0

Powered by AerisWeather